Weather in Sydney

Australia     33°52′24″S   151°12′42″E
temp.,
°C
wind,
m/s
gust,
m/s
humid.,
%
clouds,
%
prec.,
mm/h
press.,
hPa
HPBL,
m
19 september, sun
sun1901:00+13w24650 0.0 1021304
04:00+11nw22670 0.0 102173
07:00+12nw24600 0.0 1023116
10:00+19nw35320 0.0 10221026
13:00+23w47250 0.0 10181370
16:00+22w48280 0.0 10171161
19:00+18w613390 0.0 1019463
22:00+14nw36510 0.0 1019121
20 september, mon
mon2001:00+13nw410560 0.0 1017190
04:00+12nnw411540 0.0 1016240
07:00+13nnw411500 0.0 1016251
10:00+21nw510290 0.0 10141383
13:00+25wnw712210 0.0 10092207
16:00+23nw613282 0.0 10072101
19:00+14wsw8156027 0.0 1012970
22:00+12sw61054100 0.0 10131016
21 september, tue
tue2101:00+10sw36620 0.0 1013427
04:00+10wsw61162100 0.0 1012576
07:00+10wsw71058100 0.0 10141069
10:00+13ssw794596 0.1 10162019
13:00+15s10144334 0.0 10162303
16:00+14s1115492 0.0 10182016
19:00+13s9135321 0.0 10201706
22:00+12ssw7115554 0.1 10221350
22 september, wed
wed2201:00+10sw711572 0.1 10231055
04:00+8sw510605 0.1 1023598
07:00+8wsw59604 0.0 1024313
10:00+15sw45405 0.0 10231221
13:00+18sse45405 0.0 10211494
16:00+17se43440 0.0 1021819
19:00+13se12650 0.0 1022168
22:00+12wnw22720 0.0 102366
23 september, thu
thu2301:00+10nw23730 0.0 102186
04:00+9wnw34750 0.0 102099
07:00+11wnw35672 0.0 1021158
10:00+20nnw34375 0.0 1019671
13:00+24ene14310 0.0 10161227
16:00+23ene34420 0.0 1015271
19:00+18sw22640 0.0 101732
22:00+15wnw36600 0.0 1017139